• In Belarus
  • List of Countries
  • For 7 days
  • Water Temperature
  • Weather Map
  • Weather Widgets
  • user-avatar
    Login

    Hourly Weather Ganja

    Today, 7 April, Tuesday

    Time Temperature Precipitation Wind Pressure Humidity
    00:00 +6°C° 1.2 mm 7 mps 730 mmHg 87%
    01:00 +6°C° 0.6 mm 7 mps 730 mmHg 87%
    02:00 +6°C° 0.6 mm 7 mps 730 mmHg 87%
    03:00 +5°C° 0 mm 7 mps 730 mmHg 86%
    04:00 +5°C° 0.3 mm 7 mps 731 mmHg 86%
    05:00 +4°C° 0.3 mm 7 mps 731 mmHg 85%
    06:00 +3°C° 0.3 mm 7 mps 731 mmHg 84%
    07:00 +3°C° 0.1 mm 7 mps 732 mmHg 82%
    08:00 +3°C° 0.1 mm 7 mps 732 mmHg 80%
    09:00 +3°C° 0.1 mm 7 mps 732 mmHg 78%
    10:00 +3°C° 0.3 mm 7 mps 732 mmHg 78%
    11:00 +3°C° 0.3 mm 7 mps 732 mmHg 78%
    12:00 +4°C° 0.3 mm 6 mps 732 mmHg 78%
    13:00 +3°C° 0.2 mm 6 mps 732 mmHg 78%
    14:00 +3°C° 0.2 mm 6 mps 732 mmHg 78%
    15:00 +3°C° 0.2 mm 5 mps 732 mmHg 79%
    16:00 +3°C° 0.2 mm 5 mps 732 mmHg 81%
    17:00 +2°C° 0.2 mm 5 mps 733 mmHg 83%
    18:00 +3°C° 0.2 mm 4 mps 733 mmHg 85%
    19:00 +1°C° 0.2 mm 4 mps 734 mmHg 88%
    20:00 +1°C° 0.2 mm 4 mps 734 mmHg 91%
    21:00 +1°C° 0.2 mm 4 mps 735 mmHg 94%
    22:00 +1°C° 0.3 mm 4 mps 735 mmHg 94%
    23:00 0°C° 0.3 mm 4 mps 735 mmHg 94%

    Tomorrow, 8 April, Wednesday

    Time Temperature Precipitation Wind Pressure Humidity
    00:00 0°C° 0.3 mm 4 mps 736 mmHg 95%
    01:00 +1°C° 0.2 mm 3 mps 736 mmHg 94%
    02:00 +1°C° 0.2 mm 3 mps 736 mmHg 94%
    03:00 +1°C° 0.2 mm 3 mps 736 mmHg 93%
    04:00 +1°C° 0.2 mm 3 mps 736 mmHg 94%
    05:00 0°C° 0.2 mm 3 mps 737 mmHg 94%
    06:00 0°C° 0.2 mm 3 mps 737 mmHg 94%
    07:00 +1°C° 0.1 mm 3 mps 737 mmHg 91%
    08:00 +1°C° 0.1 mm 3 mps 737 mmHg 87%
    09:00 +1°C° 0.1 mm 4 mps 737 mmHg 83%
    10:00 +1°C° 0.1 mm 4 mps 736 mmHg 80%
    11:00 +3°C° 0.1 mm 4 mps 736 mmHg 77%
    12:00 +4°C° 0.1 mm 4 mps 736 mmHg 73%
    13:00 +4°C° 0.1 mm 4 mps 735 mmHg 72%
    14:00 +5°C° 0.1 mm 4 mps 735 mmHg 71%
    15:00 +5°C° 0.1 mm 4 mps 734 mmHg 71%
    16:00 +5°C° 0.1 mm 4 mps 734 mmHg 72%
    17:00 +4°C° 0.1 mm 4 mps 734 mmHg 73%
    18:00 +4°C° 0.1 mm 3 mps 734 mmHg 74%
    19:00 +4°C° 0 mm 3 mps 734 mmHg 76%
    20:00 +3°C° 0 mm 3 mps 734 mmHg 77%
    21:00 +4°C° 0 mm 2 mps 734 mmHg 79%
    22:00 +4°C° 0 mm 2 mps 734 mmHg 80%
    23:00 +3°C° 0 mm 2 mps 733 mmHg 82%

    Day after tomorrow, 9 April, Thursday

    Time Temperature Precipitation Wind Pressure Humidity
    00:00 +4°C° 0 mm 1 mps 733 mmHg 83%
    01:00 +4°C° 0 mm 1 mps 732 mmHg 85%
    02:00 +4°C° 0 mm 1 mps 731 mmHg 86%
    03:00 +4°C° 0 mm 1 mps 730 mmHg 87%
    04:00 +4°C° 0 mm 1 mps 730 mmHg 87%
    05:00 +3°C° 0 mm 1 mps 729 mmHg 87%
    06:00 +2°C° 0 mm 0 mps 729 mmHg 88%
    07:00 +4°C° 0 mm 1 mps 728 mmHg 84%
    08:00 +5°C° 0 mm 1 mps 728 mmHg 81%
    09:00 +5°C° 0 mm 1 mps 727 mmHg 78%
    10:00 +6°C° 0 mm 1 mps 727 mmHg 74%
    11:00 +7°C° 0 mm 1 mps 726 mmHg 70%
    12:00 +7°C° 0 mm 2 mps 725 mmHg 67%
    13:00 +8°C° 0 mm 2 mps 725 mmHg 65%
    14:00 +8°C° 0 mm 2 mps 725 mmHg 63%
    15:00 +9°C° 0 mm 2 mps 724 mmHg 60%
    16:00 +9°C° 0 mm 2 mps 724 mmHg 61%
    17:00 +9°C° 0 mm 2 mps 724 mmHg 61%
    18:00 +9°C° 0 mm 2 mps 724 mmHg 62%
    19:00 +9°C° 0 mm 1 mps 725 mmHg 64%
    20:00 +9°C° 0 mm 1 mps 725 mmHg 67%
    21:00 +8°C° 0 mm 1 mps 725 mmHg 69%
    22:00 +8°C° 0 mm 1 mps 725 mmHg 71%
    23:00 +7°C° 0 mm 1 mps 725 mmHg 72%

    10 April, Friday

    Time Temperature Precipitation Wind Pressure Humidity
    00:00 +7°C° 0 mm 1 mps 725 mmHg 73%
    01:00 +6°C° 0 mm 0 mps 724 mmHg 76%
    02:00 +5°C° 0 mm 0 mps 724 mmHg 78%
    03:00 +5°C° 0 mm 0 mps 724 mmHg 81%
    04:00 +6°C° 0 mm 1 mps 724 mmHg 80%
    05:00 +6°C° 0 mm 1 mps 724 mmHg 79%
    06:00 +6°C° 0 mm 1 mps 724 mmHg 79%
    07:00 +7°C° 0 mm 1 mps 723 mmHg 74%
    08:00 +9°C° 0 mm 1 mps 723 mmHg 69%
    09:00 +10°C° 0 mm 1 mps 723 mmHg 63%
    10:00 +10°C° 0 mm 2 mps 722 mmHg 61%
    11:00 +12°C° 0 mm 2 mps 722 mmHg 59%
    12:00 +12°C° 0 mm 2 mps 722 mmHg 56%
    13:00 +13°C° 0 mm 2 mps 721 mmHg 55%
    14:00 +13°C° 0 mm 2 mps 721 mmHg 54%
    15:00 +14°C° 0 mm 2 mps 720 mmHg 53%
    16:00 +14°C° 0 mm 2 mps 721 mmHg 55%
    17:00 +13°C° 0 mm 2 mps 721 mmHg 58%
    18:00 +13°C° 0 mm 2 mps 721 mmHg 60%
    19:00 +12°C° 0 mm 2 mps 721 mmHg 63%
    20:00 +11°C° 0 mm 1 mps 722 mmHg 66%
    21:00 +11°C° 0 mm 1 mps 722 mmHg 68%
    22:00 +10°C° 0 mm 1 mps 722 mmHg 72%
    23:00 +10°C° 0 mm 1 mps 722 mmHg 75%

    11 April, Saturday

    Time Temperature Precipitation Wind Pressure Humidity
    00:00 +8°C° 0 mm 2 mps 721 mmHg 78%
    01:00 +9°C° 0 mm 1 mps 721 mmHg 80%
    02:00 +9°C° 0 mm 1 mps 721 mmHg 81%
    03:00 +9°C° 0 mm 1 mps 721 mmHg 83%
    04:00 +9°C° 0 mm 1 mps 721 mmHg 83%
    05:00 +9°C° 0 mm 1 mps 721 mmHg 83%
    06:00 +9°C° 0 mm 1 mps 721 mmHg 84%
    07:00 +8°C° 0.1 mm 2 mps 721 mmHg 81%
    08:00 +9°C° 0.1 mm 2 mps 721 mmHg 79%
    09:00 +10°C° 0.1 mm 3 mps 720 mmHg 77%
    10:00 +10°C° 0 mm 3 mps 720 mmHg 74%
    11:00 +11°C° 0 mm 4 mps 720 mmHg 72%
    12:00 +11°C° 0 mm 4 mps 720 mmHg 70%
    13:00 +12°C° 0 mm 4 mps 720 mmHg 69%
    14:00 +12°C° 0 mm 5 mps 720 mmHg 68%
    15:00 +12°C° 0 mm 5 mps 720 mmHg 66%
    16:00 +12°C° 0.1 mm 5 mps 720 mmHg 67%
    17:00 +12°C° 0.1 mm 5 mps 720 mmHg 68%
    18:00 +10°C° 0.1 mm 5 mps 720 mmHg 69%
    19:00 +10°C° 0 mm 5 mps 721 mmHg 69%
    20:00 +10°C° 0 mm 4 mps 721 mmHg 69%
    21:00 +8°C° 0 mm 4 mps 722 mmHg 69%
    22:00 +8°C° 0 mm 4 mps 722 mmHg 69%
    23:00 +8°C° 0 mm 4 mps 722 mmHg 69%

    12 April, Sunday

    Time Temperature Precipitation Wind Pressure Humidity
    00:00 +7°C° 0 mm 4 mps 723 mmHg 69%
    01:00 +7°C° 0 mm 4 mps 723 mmHg 69%
    02:00 +7°C° 0 mm 4 mps 723 mmHg 69%
    03:00 +7°C° 0 mm 5 mps 723 mmHg 69%
    04:00 +7°C° 0 mm 4 mps 724 mmHg 69%
    05:00 +7°C° 0 mm 4 mps 724 mmHg 69%
    06:00 +7°C° 0 mm 3 mps 724 mmHg 69%
    07:00 +8°C° 0 mm 4 mps 725 mmHg 64%
    08:00 +10°C° 0 mm 4 mps 725 mmHg 60%
    09:00 +10°C° 0 mm 5 mps 725 mmHg 55%
    10:00 +12°C° 0 mm 5 mps 725 mmHg 53%
    11:00 +13°C° 0 mm 4 mps 725 mmHg 52%
    12:00 +14°C° 0 mm 4 mps 725 mmHg 50%
    13:00 +14°C° 0.1 mm 4 mps 725 mmHg 51%
    14:00 +14°C° 0.1 mm 3 mps 725 mmHg 53%
    15:00 +15°C° 0.1 mm 2 mps 725 mmHg 54%
    16:00 +14°C° 0 mm 2 mps 725 mmHg 57%
    17:00 +14°C° 0 mm 2 mps 725 mmHg 61%
    18:00 +14°C° 0 mm 2 mps 725 mmHg 64%
    19:00 +13°C° 0 mm 2 mps 726 mmHg 67%
    20:00 +11°C° 0 mm 3 mps 727 mmHg 70%
    21:00 +10°C° 0 mm 3 mps 727 mmHg 73%
    22:00 +9°C° 0 mm 3 mps 728 mmHg 74%
    23:00 +9°C° 0 mm 3 mps 728 mmHg 76%
    Show more